Location: Mt. Graham
(32.7020°N, 109.8880°W)
Time: 06:20:49
(UTC-07:00)

Tiangong 1 - Visible Passes

Search period start: 25 September 2017 00:00
Search period end: 05 October 2017 00:00
Orbit: 303 x 327 km, 42.8° (Epoch: 25 September)

Date Brightness Start Highest point End Pass type
(mag) Time Alt. Az. Time Alt. Az. Time Alt. Az.
25 Sep 1.5 04:53:40 35° NNW 04:54:19 46° NNE 04:56:53 10° ESE visible
26 Sep 0.7 05:06:58 39° W 05:07:38 56° SSW 05:10:14 10° SE visible
27 Sep 2.3 05:20:19 18° SW 05:20:43 18° SW 05:22:39 10° S visible
01 Oct 2.2 19:15:29 10° SSW 19:17:06 24° S 19:17:06 24° S visible
02 Oct 1.5 19:27:47 10° WSW 19:29:49 47° WSW 19:29:49 47° WSW visible
03 Oct 2.8 19:40:37 10° W 19:42:16 26° WNW 19:42:16 26° WNW visible
04 Oct 0.7 18:17:49 10° SW 18:20:27 60° SSE 18:23:05 10° ENE visible
04 Oct 3.9 19:53:49 10° WNW 19:54:31 14° NW 19:54:31 14° NW visible
